TimeEDT,TemperatureF,Dew PointF,Humidity,Sea Level PressureIn,VisibilityMPH,Wind Direction,Wind SpeedMPH,Gust SpeedMPH,PrecipitationIn,Events,Conditions,WindDirDegrees,DateUTC
12:57 AM,57.9,55.0,90,30.24,7.0,Calm,Calm,-,N/A,,Clear,0,2013-10-31 04:57:00
1:57 AM,57.0,55.0,93,30.23,10.0,Calm,Calm,-,N/A,,Clear,0,2013-10-31 05:57:00
2:57 AM,57.0,54.0,89,30.22,9.0,Calm,Calm,-,N/A,,Clear,0,2013-10-31 06:57:00
3:57 AM,57.0,54.0,89,30.21,10.0,Calm,Calm,-,N/A,,Clear,0,2013-10-31 07:57:00
4:39 AM,55.9,53.1,90,30.20,8.0,Calm,Calm,-,N/A,,Partly Cloudy,0,2013-10-31 08:39:00
4:57 AM,55.9,53.1,90,30.22,9.0,Calm,Calm,-,N/A,,Partly Cloudy,0,2013-10-31 08:57:00
6:57 AM,54.0,52.0,93,30.22,9.0,Calm,Calm,-,N/A,,Partly Cloudy,0,2013-10-31 10:57:00
7:43 AM,55.0,52.0,89,30.19,0.8,Calm,Calm,-,N/A,,Mostly Cloudy,0,2013-10-31 11:43:00
7:46 AM,55.0,53.1,93,30.20,1.0,Calm,Calm,-,N/A,,Mostly Cloudy,0,2013-10-31 11:46:00
7:57 AM,55.0,53.1,93,30.21,9.0,Calm,Calm,-,N/A,,Mostly Cloudy,0,2013-10-31 11:57:00
8:57 AM,66.0,60.1,81,30.23,10.0,Calm,Calm,-,N/A,,Mostly Cloudy,0,2013-10-31 12:57:00
9:57 AM,68.0,62.1,81,30.22,10.0,ESE,5.8,-,N/A,,Mostly Cloudy,110,2013-10-31 13:57:00
10:28 AM,71.1,64.9,81,30.20,10.0,SE,10.4,-,N/A,,Mostly Cloudy,140,2013-10-31 14:28:00
10:57 AM,70.0,64.0,81,30.20,10.0,SE,15.0,-,N/A,,Overcast,130,2013-10-31 14:57:00
11:16 AM,70.0,64.9,84,30.19,10.0,SE,10.4,-,N/A,,Overcast,140,2013-10-31 15:16:00
11:57 AM,71.1,66.0,84,30.19,10.0,South,10.4,-,N/A,,Overcast,170,2013-10-31 15:57:00
12:57 PM,72.0,64.9,78,30.16,10.0,South,16.1,23.0,N/A,,Overcast,180,2013-10-31 16:57:00
1:57 PM,73.0,66.0,79,30.12,10.0,South,17.3,-,N/A,,Overcast,190,2013-10-31 17:57:00
2:04 PM,73.0,66.0,79,30.11,10.0,South,17.3,25.3,N/A,,Overcast,180,2013-10-31 18:04:00
2:57 PM,72.0,64.9,78,30.12,10.0,South,16.1,-,N/A,,Mostly Cloudy,180,2013-10-31 18:57:00
3:57 PM,72.0,64.9,78,30.11,10.0,SSW,18.4,28.8,N/A,,Overcast,200,2013-10-31 19:57:00
4:57 PM,72.0,64.0,76,30.11,10.0,SW,11.5,-,N/A,,Overcast,220,2013-10-31 20:57:00
5:57 PM,72.0,63.0,73,30.09,10.0,SSW,9.2,-,N/A,,Partly Cloudy,210,2013-10-31 21:57:00
6:57 PM,71.1,64.0,78,30.09,10.0,SSW,5.8,-,N/A,,Mostly Cloudy,200,2013-10-31 22:57:00
7:57 PM,72.0,66.0,81,30.08,10.0,South,8.1,-,N/A,,Mostly Cloudy,180,2013-10-31 23:57:00
8:57 PM,72.0,66.9,84,30.07,10.0,South,10.4,-,N/A,,Clear,190,2013-11-01 00:57:00
9:57 PM,72.0,66.0,81,30.06,10.0,South,11.5,-,N/A,,Clear,190,2013-11-01 01:57:00
10:57 PM,72.0,64.9,78,30.05,10.0,South,11.5,-,N/A,,Clear,190,2013-11-01 02:57:00
11:57 PM,72.0,64.9,78,30.03,10.0,SSW,9.2,-,N/A,,Partly Cloudy,200,2013-11-01 03:57:00